Index of /20260428/WXO-DD/model_rdps/10km/12/007
Name Last modified Size Description
Parent Directory -
20260428T12Z_MSC_RDPS_AbsoluteVorticity_IsbL-0250_RLatLon0.09_PT007H.grib2 2026-04-28 14:41 632K
20260428T12Z_MSC_RDPS_AbsoluteVorticity_IsbL-0500_RLatLon0.09_PT007H.grib2 2026-04-28 14:41 572K
20260428T12Z_MSC_RDPS_AbsoluteVorticity_IsbL-0700_RLatLon0.09_PT007H.grib2 2026-04-28 14:41 624K
20260428T12Z_MSC_RDPS_AbsoluteVorticity_IsbL-0850_RLatLon0.09_PT007H.grib2 2026-04-28 14:41 782K
20260428T12Z_MSC_RDPS_AirTemp_AGL-120m_RLatLon0.09_PT007H.grib2 2026-04-28 14:41 395K
20260428T12Z_MSC_RDPS_AirTemp_AGL-2m_RLatLon0.09_PT007H.grib2 2026-04-28 14:41 631K
20260428T12Z_MSC_RDPS_AirTemp_AGL-40m_RLatLon0.09_PT007H.grib2 2026-04-28 14:41 405K
20260428T12Z_MSC_RDPS_AirTemp_AGL-80m_RLatLon0.09_PT007H.grib2 2026-04-28 14:41 400K
20260428T12Z_MSC_RDPS_AirTemp_IsbL-0001_RLatLon0.09_PT007H.grib2 2026-04-28 14:41 283K
20260428T12Z_MSC_RDPS_AirTemp_IsbL-0005_RLatLon0.09_PT007H.grib2 2026-04-28 14:41 290K
20260428T12Z_MSC_RDPS_AirTemp_IsbL-0010_RLatLon0.09_PT007H.grib2 2026-04-28 14:41 298K
20260428T12Z_MSC_RDPS_AirTemp_IsbL-0020_RLatLon0.09_PT007H.grib2 2026-04-28 14:41 313K
20260428T12Z_MSC_RDPS_AirTemp_IsbL-0030_RLatLon0.09_PT007H.grib2 2026-04-28 14:41 332K
20260428T12Z_MSC_RDPS_AirTemp_IsbL-0050_RLatLon0.09_PT007H.grib2 2026-04-28 14:41 311K
20260428T12Z_MSC_RDPS_AirTemp_IsbL-0100_RLatLon0.09_PT007H.grib2 2026-04-28 14:41 426K
20260428T12Z_MSC_RDPS_AirTemp_IsbL-0150_RLatLon0.09_PT007H.grib2 2026-04-28 14:41 432K
20260428T12Z_MSC_RDPS_AirTemp_IsbL-0175_RLatLon0.09_PT007H.grib2 2026-04-28 14:41 423K
20260428T12Z_MSC_RDPS_AirTemp_IsbL-0200_RLatLon0.09_PT007H.grib2 2026-04-28 14:41 427K
20260428T12Z_MSC_RDPS_AirTemp_IsbL-0225_RLatLon0.09_PT007H.grib2 2026-04-28 14:41 428K
20260428T12Z_MSC_RDPS_AirTemp_IsbL-0250_RLatLon0.09_PT007H.grib2 2026-04-28 14:41 437K
20260428T12Z_MSC_RDPS_AirTemp_IsbL-0275_RLatLon0.09_PT007H.grib2 2026-04-28 14:41 418K
20260428T12Z_MSC_RDPS_AirTemp_IsbL-0300_RLatLon0.09_PT007H.grib2 2026-04-28 14:41 422K
20260428T12Z_MSC_RDPS_AirTemp_IsbL-0350_RLatLon0.09_PT007H.grib2 2026-04-28 14:41 433K
20260428T12Z_MSC_RDPS_AirTemp_IsbL-0400_RLatLon0.09_PT007H.grib2 2026-04-28 14:41 434K
20260428T12Z_MSC_RDPS_AirTemp_IsbL-0450_RLatLon0.09_PT007H.grib2 2026-04-28 14:41 440K
20260428T12Z_MSC_RDPS_AirTemp_IsbL-0500_RLatLon0.09_PT007H.grib2 2026-04-28 14:41 415K
20260428T12Z_MSC_RDPS_AirTemp_IsbL-0550_RLatLon0.09_PT007H.grib2 2026-04-28 14:41 431K
20260428T12Z_MSC_RDPS_AirTemp_IsbL-0600_RLatLon0.09_PT007H.grib2 2026-04-28 14:41 450K
20260428T12Z_MSC_RDPS_AirTemp_IsbL-0650_RLatLon0.09_PT007H.grib2 2026-04-28 14:41 466K
20260428T12Z_MSC_RDPS_AirTemp_IsbL-0700_RLatLon0.09_PT007H.grib2 2026-04-28 14:41 382K
20260428T12Z_MSC_RDPS_AirTemp_IsbL-0750_RLatLon0.09_PT007H.grib2 2026-04-28 14:41 417K
20260428T12Z_MSC_RDPS_AirTemp_IsbL-0800_RLatLon0.09_PT007H.grib2 2026-04-28 14:41 462K
20260428T12Z_MSC_RDPS_AirTemp_IsbL-0850_RLatLon0.09_PT007H.grib2 2026-04-28 14:41 509K
20260428T12Z_MSC_RDPS_AirTemp_IsbL-0875_RLatLon0.09_PT007H.grib2 2026-04-28 14:41 525K
20260428T12Z_MSC_RDPS_AirTemp_IsbL-0900_RLatLon0.09_PT007H.grib2 2026-04-28 14:41 530K
20260428T12Z_MSC_RDPS_AirTemp_IsbL-0925_RLatLon0.09_PT007H.grib2 2026-04-28 14:41 530K
20260428T12Z_MSC_RDPS_AirTemp_IsbL-0950_RLatLon0.09_PT007H.grib2 2026-04-28 14:41 543K
20260428T12Z_MSC_RDPS_AirTemp_IsbL-0970_RLatLon0.09_PT007H.grib2 2026-04-28 14:41 538K
20260428T12Z_MSC_RDPS_AirTemp_IsbL-0985_RLatLon0.09_PT007H.grib2 2026-04-28 14:41 527K
20260428T12Z_MSC_RDPS_AirTemp_IsbL-1000_RLatLon0.09_PT007H.grib2 2026-04-28 14:41 511K
20260428T12Z_MSC_RDPS_AirTemp_IsbL-1015_RLatLon0.09_PT007H.grib2 2026-04-28 14:41 510K
20260428T12Z_MSC_RDPS_Albedo_Sfc_RLatLon0.09_PT007H.grib2 2026-04-28 14:41 162K
20260428T12Z_MSC_RDPS_CAPE_Sfc_RLatLon0.09_PT007H.grib2 2026-04-28 14:41 1.8M
20260428T12Z_MSC_RDPS_CIN_Sfc_RLatLon0.09_PT007H.grib2 2026-04-28 14:41 1.1M
20260428T12Z_MSC_RDPS_CloudWater_EAtm_RLatLon0.09_PT007H.grib2 2026-04-28 14:41 220K
20260428T12Z_MSC_RDPS_ConvectivePrecip-Accum_Sfc_RLatLon0.09_PT007H.grib2 2026-04-28 14:41 553K
20260428T12Z_MSC_RDPS_DewPointDepression_AGL-2m_RLatLon0.09_PT007H.grib2 2026-04-28 14:41 419K
20260428T12Z_MSC_RDPS_DewPointDepression_IsbL-0001_RLatLon0.09_PT007H.grib2 2026-04-28 14:41 193
20260428T12Z_MSC_RDPS_DewPointDepression_IsbL-0005_RLatLon0.09_PT007H.grib2 2026-04-28 14:41 193
20260428T12Z_MSC_RDPS_DewPointDepression_IsbL-0010_RLatLon0.09_PT007H.grib2 2026-04-28 14:41 193
20260428T12Z_MSC_RDPS_DewPointDepression_IsbL-0020_RLatLon0.09_PT007H.grib2 2026-04-28 14:41 193
20260428T12Z_MSC_RDPS_DewPointDepression_IsbL-0030_RLatLon0.09_PT007H.grib2 2026-04-28 14:41 193
20260428T12Z_MSC_RDPS_DewPointDepression_IsbL-0050_RLatLon0.09_PT007H.grib2 2026-04-28 14:41 84K
20260428T12Z_MSC_RDPS_DewPointDepression_IsbL-0100_RLatLon0.09_PT007H.grib2 2026-04-28 14:41 130K
20260428T12Z_MSC_RDPS_DewPointDepression_IsbL-0150_RLatLon0.09_PT007H.grib2 2026-04-28 14:41 159K
20260428T12Z_MSC_RDPS_DewPointDepression_IsbL-0175_RLatLon0.09_PT007H.grib2 2026-04-28 14:41 190K
20260428T12Z_MSC_RDPS_DewPointDepression_IsbL-0200_RLatLon0.09_PT007H.grib2 2026-04-28 14:41 226K
20260428T12Z_MSC_RDPS_DewPointDepression_IsbL-0225_RLatLon0.09_PT007H.grib2 2026-04-28 14:41 271K
20260428T12Z_MSC_RDPS_DewPointDepression_IsbL-0250_RLatLon0.09_PT007H.grib2 2026-04-28 14:41 311K
20260428T12Z_MSC_RDPS_DewPointDepression_IsbL-0275_RLatLon0.09_PT007H.grib2 2026-04-28 14:41 316K
20260428T12Z_MSC_RDPS_DewPointDepression_IsbL-0300_RLatLon0.09_PT007H.grib2 2026-04-28 14:41 333K
20260428T12Z_MSC_RDPS_DewPointDepression_IsbL-0350_RLatLon0.09_PT007H.grib2 2026-04-28 14:41 337K
20260428T12Z_MSC_RDPS_DewPointDepression_IsbL-0400_RLatLon0.09_PT007H.grib2 2026-04-28 14:41 351K
20260428T12Z_MSC_RDPS_DewPointDepression_IsbL-0450_RLatLon0.09_PT007H.grib2 2026-04-28 14:41 359K
20260428T12Z_MSC_RDPS_DewPointDepression_IsbL-0500_RLatLon0.09_PT007H.grib2 2026-04-28 14:41 361K
20260428T12Z_MSC_RDPS_DewPointDepression_IsbL-0550_RLatLon0.09_PT007H.grib2 2026-04-28 14:41 371K
20260428T12Z_MSC_RDPS_DewPointDepression_IsbL-0600_RLatLon0.09_PT007H.grib2 2026-04-28 14:41 382K
20260428T12Z_MSC_RDPS_DewPointDepression_IsbL-0650_RLatLon0.09_PT007H.grib2 2026-04-28 14:41 388K
20260428T12Z_MSC_RDPS_DewPointDepression_IsbL-0700_RLatLon0.09_PT007H.grib2 2026-04-28 14:41 399K
20260428T12Z_MSC_RDPS_DewPointDepression_IsbL-0750_RLatLon0.09_PT007H.grib2 2026-04-28 14:41 422K
20260428T12Z_MSC_RDPS_DewPointDepression_IsbL-0800_RLatLon0.09_PT007H.grib2 2026-04-28 14:41 453K
20260428T12Z_MSC_RDPS_DewPointDepression_IsbL-0850_RLatLon0.09_PT007H.grib2 2026-04-28 14:41 476K
20260428T12Z_MSC_RDPS_DewPointDepression_IsbL-0875_RLatLon0.09_PT007H.grib2 2026-04-28 14:41 475K
20260428T12Z_MSC_RDPS_DewPointDepression_IsbL-0900_RLatLon0.09_PT007H.grib2 2026-04-28 14:41 465K
20260428T12Z_MSC_RDPS_DewPointDepression_IsbL-0925_RLatLon0.09_PT007H.grib2 2026-04-28 14:41 456K
20260428T12Z_MSC_RDPS_DewPointDepression_IsbL-0950_RLatLon0.09_PT007H.grib2 2026-04-28 14:41 449K
20260428T12Z_MSC_RDPS_DewPointDepression_IsbL-0970_RLatLon0.09_PT007H.grib2 2026-04-28 14:41 441K
20260428T12Z_MSC_RDPS_DewPointDepression_IsbL-0985_RLatLon0.09_PT007H.grib2 2026-04-28 14:41 435K
20260428T12Z_MSC_RDPS_DewPointDepression_IsbL-1000_RLatLon0.09_PT007H.grib2 2026-04-28 14:41 431K
20260428T12Z_MSC_RDPS_DewPointDepression_IsbL-1015_RLatLon0.09_PT007H.grib2 2026-04-28 14:41 425K
20260428T12Z_MSC_RDPS_DewPoint_AGL-2m_RLatLon0.09_PT007H.grib2 2026-04-28 14:41 404K
20260428T12Z_MSC_RDPS_DownwardLongwaveRadiationFlux-Accum_Sfc_RLatLon0.09_PT007H.grib2 2026-04-28 14:41 532K
20260428T12Z_MSC_RDPS_DownwardShortwaveRadiationFlux-Accum_NTAtm_RLatLon0.09_PT007H.grib2 2026-04-28 14:41 117K
20260428T12Z_MSC_RDPS_DownwardShortwaveRadiationFlux-Accum_Sfc_RLatLon0.09_PT007H.grib2 2026-04-28 14:41 486K
20260428T12Z_MSC_RDPS_FreezingRain-Accum1h_Sfc_RLatLon0.09_PT007H.grib2 2026-04-28 14:41 6.5K
20260428T12Z_MSC_RDPS_FreezingRain-Accum_Sfc_RLatLon0.09_PT007H.grib2 2026-04-28 14:41 51K
20260428T12Z_MSC_RDPS_GeopotentialHeight_IsbL-0001_RLatLon0.09_PT007H.grib2 2026-04-28 14:41 278K
20260428T12Z_MSC_RDPS_GeopotentialHeight_IsbL-0005_RLatLon0.09_PT007H.grib2 2026-04-28 14:41 315K
20260428T12Z_MSC_RDPS_GeopotentialHeight_IsbL-0010_RLatLon0.09_PT007H.grib2 2026-04-28 14:41 344K
20260428T12Z_MSC_RDPS_GeopotentialHeight_IsbL-0020_RLatLon0.09_PT007H.grib2 2026-04-28 14:41 310K
20260428T12Z_MSC_RDPS_GeopotentialHeight_IsbL-0030_RLatLon0.09_PT007H.grib2 2026-04-28 14:41 312K
20260428T12Z_MSC_RDPS_GeopotentialHeight_IsbL-0050_RLatLon0.09_PT007H.grib2 2026-04-28 14:41 345K
20260428T12Z_MSC_RDPS_GeopotentialHeight_IsbL-0100_RLatLon0.09_PT007H.grib2 2026-04-28 14:41 292K
20260428T12Z_MSC_RDPS_GeopotentialHeight_IsbL-0150_RLatLon0.09_PT007H.grib2 2026-04-28 14:41 233K
20260428T12Z_MSC_RDPS_GeopotentialHeight_IsbL-0175_RLatLon0.09_PT007H.grib2 2026-04-28 14:41 268K
20260428T12Z_MSC_RDPS_GeopotentialHeight_IsbL-0200_RLatLon0.09_PT007H.grib2 2026-04-28 14:41 270K
20260428T12Z_MSC_RDPS_GeopotentialHeight_IsbL-0225_RLatLon0.09_PT007H.grib2 2026-04-28 14:41 271K
20260428T12Z_MSC_RDPS_GeopotentialHeight_IsbL-0250_RLatLon0.09_PT007H.grib2 2026-04-28 14:41 272K
20260428T12Z_MSC_RDPS_GeopotentialHeight_IsbL-0275_RLatLon0.09_PT007H.grib2 2026-04-28 14:41 271K
20260428T12Z_MSC_RDPS_GeopotentialHeight_IsbL-0300_RLatLon0.09_PT007H.grib2 2026-04-28 14:41 270K
20260428T12Z_MSC_RDPS_GeopotentialHeight_IsbL-0350_RLatLon0.09_PT007H.grib2 2026-04-28 14:41 235K
20260428T12Z_MSC_RDPS_GeopotentialHeight_IsbL-0400_RLatLon0.09_PT007H.grib2 2026-04-28 14:41 232K
20260428T12Z_MSC_RDPS_GeopotentialHeight_IsbL-0450_RLatLon0.09_PT007H.grib2 2026-04-28 14:41 228K
20260428T12Z_MSC_RDPS_GeopotentialHeight_IsbL-0500_RLatLon0.09_PT007H.grib2 2026-04-28 14:41 295K
20260428T12Z_MSC_RDPS_GeopotentialHeight_IsbL-0550_RLatLon0.09_PT007H.grib2 2026-04-28 14:41 291K
20260428T12Z_MSC_RDPS_GeopotentialHeight_IsbL-0600_RLatLon0.09_PT007H.grib2 2026-04-28 14:41 287K
20260428T12Z_MSC_RDPS_GeopotentialHeight_IsbL-0650_RLatLon0.09_PT007H.grib2 2026-04-28 14:41 259K
20260428T12Z_MSC_RDPS_GeopotentialHeight_IsbL-0700_RLatLon0.09_PT007H.grib2 2026-04-28 14:41 259K
20260428T12Z_MSC_RDPS_GeopotentialHeight_IsbL-0750_RLatLon0.09_PT007H.grib2 2026-04-28 14:41 344K
20260428T12Z_MSC_RDPS_GeopotentialHeight_IsbL-0800_RLatLon0.09_PT007H.grib2 2026-04-28 14:41 352K
20260428T12Z_MSC_RDPS_GeopotentialHeight_IsbL-0850_RLatLon0.09_PT007H.grib2 2026-04-28 14:41 361K
20260428T12Z_MSC_RDPS_GeopotentialHeight_IsbL-0875_RLatLon0.09_PT007H.grib2 2026-04-28 14:41 365K
20260428T12Z_MSC_RDPS_GeopotentialHeight_IsbL-0900_RLatLon0.09_PT007H.grib2 2026-04-28 14:41 369K
20260428T12Z_MSC_RDPS_GeopotentialHeight_IsbL-0925_RLatLon0.09_PT007H.grib2 2026-04-28 14:41 371K
20260428T12Z_MSC_RDPS_GeopotentialHeight_IsbL-0950_RLatLon0.09_PT007H.grib2 2026-04-28 14:41 378K
20260428T12Z_MSC_RDPS_GeopotentialHeight_IsbL-0970_RLatLon0.09_PT007H.grib2 2026-04-28 14:41 384K
20260428T12Z_MSC_RDPS_GeopotentialHeight_IsbL-0985_RLatLon0.09_PT007H.grib2 2026-04-28 14:41 393K
20260428T12Z_MSC_RDPS_GeopotentialHeight_IsbL-1000_RLatLon0.09_PT007H.grib2 2026-04-28 14:41 405K
20260428T12Z_MSC_RDPS_GeopotentialHeight_IsbL-1015_RLatLon0.09_PT007H.grib2 2026-04-28 14:41 419K
20260428T12Z_MSC_RDPS_Humidex_Sfc_RLatLon0.09_PT007H.grib2 2026-04-28 14:41 2.4M
20260428T12Z_MSC_RDPS_IcePellets-Accum1h_Sfc_RLatLon0.09_PT007H.grib2 2026-04-28 14:41 6.0K
20260428T12Z_MSC_RDPS_IcePellets-Accum_Sfc_RLatLon0.09_PT007H.grib2 2026-04-28 14:41 12K
20260428T12Z_MSC_RDPS_KIndex_Sfc_RLatLon0.09_PT007H.grib2 2026-04-28 14:41 2.4M
20260428T12Z_MSC_RDPS_LatentHeatNetFlux_Sfc_RLatLon0.09_PT007H.grib2 2026-04-28 14:41 309K
20260428T12Z_MSC_RDPS_LiftedIndex-MU-VT_IsbL-0500_RLatLon0.09_PT007H.grib2 2026-04-28 14:41 2.4M
20260428T12Z_MSC_RDPS_NetLongwaveRadiationFlux-Accum_Sfc_RLatLon0.09_PT007H.grib2 2026-04-28 14:41 544K
20260428T12Z_MSC_RDPS_NetShortwaveRadiationFlux-Accum_Sfc_RLatLon0.09_PT007H.grib2 2026-04-28 14:41 482K
20260428T12Z_MSC_RDPS_PlanetaryBoundaryLayerHeight_Sfc_RLatLon0.09_PT007H.grib2 2026-04-28 14:41 1.0M
20260428T12Z_MSC_RDPS_Precip-Accum1h_Sfc_RLatLon0.09_PT007H.grib2 2026-04-28 14:41 1.2M
20260428T12Z_MSC_RDPS_Precip-Accum_Sfc_RLatLon0.09_PT007H.grib2 2026-04-28 14:41 1.5M
20260428T12Z_MSC_RDPS_PrecipRate_Sfc_RLatLon0.09_PT007H.grib2 2026-04-28 14:41 171K
20260428T12Z_MSC_RDPS_PrecipType-Instant_Sfc_RLatLon0.09_PT007H.grib2 2026-04-28 14:41 573K
20260428T12Z_MSC_RDPS_Pressure-Trend3h_Sfc_RLatLon0.09_PT007H.grib2 2026-04-28 14:41 1.2M
20260428T12Z_MSC_RDPS_Pressure_MSL_RLatLon0.09_PT007H.grib2 2026-04-28 14:41 333K
20260428T12Z_MSC_RDPS_Pressure_PVU-1.5_RLatLon0.09_PT007H.grib2 2026-04-28 14:41 2.3M
20260428T12Z_MSC_RDPS_Pressure_PVU-1_RLatLon0.09_PT007H.grib2 2026-04-28 14:41 2.4M
20260428T12Z_MSC_RDPS_Pressure_PVU-2_RLatLon0.09_PT007H.grib2 2026-04-28 14:41 2.4M
20260428T12Z_MSC_RDPS_Pressure_Sfc_RLatLon0.09_PT007H.grib2 2026-04-28 14:41 502K
20260428T12Z_MSC_RDPS_RadiativeTemp_Sfc_RLatLon0.09_PT007H.grib2 2026-04-28 14:41 328K
20260428T12Z_MSC_RDPS_Rain-Accum1h_Sfc_RLatLon0.09_PT007H.grib2 2026-04-28 14:41 531K
20260428T12Z_MSC_RDPS_Rain-Accum_Sfc_RLatLon0.09_PT007H.grib2 2026-04-28 14:41 1.1M
20260428T12Z_MSC_RDPS_RelativeHumidity_AGL-2m_RLatLon0.09_PT007H.grib2 2026-04-28 14:41 1.0M
20260428T12Z_MSC_RDPS_RelativeHumidity_IsbL-0010_RLatLon0.09_PT007H.grib2 2026-04-28 14:41 622K
20260428T12Z_MSC_RDPS_RelativeHumidity_IsbL-0020_RLatLon0.09_PT007H.grib2 2026-04-28 14:41 648K
20260428T12Z_MSC_RDPS_RelativeHumidity_IsbL-0030_RLatLon0.09_PT007H.grib2 2026-04-28 14:41 607K
20260428T12Z_MSC_RDPS_RelativeHumidity_IsbL-0050_RLatLon0.09_PT007H.grib2 2026-04-28 14:41 370K
20260428T12Z_MSC_RDPS_RelativeHumidity_IsbL-0100_RLatLon0.09_PT007H.grib2 2026-04-28 14:41 277K
20260428T12Z_MSC_RDPS_RelativeHumidity_IsbL-0150_RLatLon0.09_PT007H.grib2 2026-04-28 14:41 421K
20260428T12Z_MSC_RDPS_RelativeHumidity_IsbL-0175_RLatLon0.09_PT007H.grib2 2026-04-28 14:41 495K
20260428T12Z_MSC_RDPS_RelativeHumidity_IsbL-0200_RLatLon0.09_PT007H.grib2 2026-04-28 14:41 562K
20260428T12Z_MSC_RDPS_RelativeHumidity_IsbL-0225_RLatLon0.09_PT007H.grib2 2026-04-28 14:41 624K
20260428T12Z_MSC_RDPS_RelativeHumidity_IsbL-0250_RLatLon0.09_PT007H.grib2 2026-04-28 14:41 695K
20260428T12Z_MSC_RDPS_RelativeHumidity_IsbL-0275_RLatLon0.09_PT007H.grib2 2026-04-28 14:41 728K
20260428T12Z_MSC_RDPS_RelativeHumidity_IsbL-0300_RLatLon0.09_PT007H.grib2 2026-04-28 14:41 771K
20260428T12Z_MSC_RDPS_RelativeHumidity_IsbL-0350_RLatLon0.09_PT007H.grib2 2026-04-28 14:41 787K
20260428T12Z_MSC_RDPS_RelativeHumidity_IsbL-0400_RLatLon0.09_PT007H.grib2 2026-04-28 14:41 803K
20260428T12Z_MSC_RDPS_RelativeHumidity_IsbL-0450_RLatLon0.09_PT007H.grib2 2026-04-28 14:41 807K
20260428T12Z_MSC_RDPS_RelativeHumidity_IsbL-0500_RLatLon0.09_PT007H.grib2 2026-04-28 14:41 821K
20260428T12Z_MSC_RDPS_RelativeHumidity_IsbL-0550_RLatLon0.09_PT007H.grib2 2026-04-28 14:41 837K
20260428T12Z_MSC_RDPS_RelativeHumidity_IsbL-0600_RLatLon0.09_PT007H.grib2 2026-04-28 14:41 858K
20260428T12Z_MSC_RDPS_RelativeHumidity_IsbL-0650_RLatLon0.09_PT007H.grib2 2026-04-28 14:41 870K
20260428T12Z_MSC_RDPS_RelativeHumidity_IsbL-0700_RLatLon0.09_PT007H.grib2 2026-04-28 14:41 890K
20260428T12Z_MSC_RDPS_RelativeHumidity_IsbL-0750_RLatLon0.09_PT007H.grib2 2026-04-28 14:41 935K
20260428T12Z_MSC_RDPS_RelativeHumidity_IsbL-0800_RLatLon0.09_PT007H.grib2 2026-04-28 14:41 1.0M
20260428T12Z_MSC_RDPS_RelativeHumidity_IsbL-0850_RLatLon0.09_PT007H.grib2 2026-04-28 14:41 1.0M
20260428T12Z_MSC_RDPS_RelativeHumidity_IsbL-0875_RLatLon0.09_PT007H.grib2 2026-04-28 14:41 1.1M
20260428T12Z_MSC_RDPS_RelativeHumidity_IsbL-0900_RLatLon0.09_PT007H.grib2 2026-04-28 14:41 1.1M
20260428T12Z_MSC_RDPS_RelativeHumidity_IsbL-0925_RLatLon0.09_PT007H.grib2 2026-04-28 14:41 1.1M
20260428T12Z_MSC_RDPS_RelativeHumidity_IsbL-0950_RLatLon0.09_PT007H.grib2 2026-04-28 14:41 1.1M
20260428T12Z_MSC_RDPS_RelativeHumidity_IsbL-0970_RLatLon0.09_PT007H.grib2 2026-04-28 14:41 1.1M
20260428T12Z_MSC_RDPS_RelativeHumidity_IsbL-0985_RLatLon0.09_PT007H.grib2 2026-04-28 14:41 1.0M
20260428T12Z_MSC_RDPS_RelativeHumidity_IsbL-1000_RLatLon0.09_PT007H.grib2 2026-04-28 14:41 1.0M
20260428T12Z_MSC_RDPS_RelativeHumidity_IsbL-1015_RLatLon0.09_PT007H.grib2 2026-04-28 14:41 1.0M
20260428T12Z_MSC_RDPS_Runoff-Accum_Sfc_RLatLon0.09_PT007H.grib2 2026-04-28 14:41 31K
20260428T12Z_MSC_RDPS_SWEATIndex_Sfc_RLatLon0.09_PT007H.grib2 2026-04-28 14:41 2.4M
20260428T12Z_MSC_RDPS_SeeingIndex_EAtm_RLatLon0.09_PT007H.grib2 2026-04-28 14:41 1.0M
20260428T12Z_MSC_RDPS_SensibleHeatNetFlux_Sfc_RLatLon0.09_PT007H.grib2 2026-04-28 14:41 370K
20260428T12Z_MSC_RDPS_ShowalterIndex_IsbL-0500_RLatLon0.09_PT007H.grib2 2026-04-28 14:41 2.6M
20260428T12Z_MSC_RDPS_SkyTransparencyIndex_EAtm_RLatLon0.09_PT007H.grib2 2026-04-28 14:41 720K
20260428T12Z_MSC_RDPS_Snow-Accum1h_Sfc_RLatLon0.09_PT007H.grib2 2026-04-28 14:41 446K
20260428T12Z_MSC_RDPS_Snow-Accum_Sfc_RLatLon0.09_PT007H.grib2 2026-04-28 14:41 572K
20260428T12Z_MSC_RDPS_SnowDensity_Sfc_RLatLon0.09_PT007H.grib2 2026-04-28 14:41 173K
20260428T12Z_MSC_RDPS_SnowDepth_Sfc_RLatLon0.09_PT007H.grib2 2026-04-28 14:41 692K
20260428T12Z_MSC_RDPS_SoilTemp_DBS-0to10cm_RLatLon0.09_PT007H.grib2 2026-04-28 14:41 208K
20260428T12Z_MSC_RDPS_SoilTemp_Sfc_RLatLon0.09_PT007H.grib2 2026-04-28 14:41 297K
20260428T12Z_MSC_RDPS_SoilVolumetricIceContent_Sfc_RLatLon0.09_PT007H.grib2 2026-04-28 14:41 167K
20260428T12Z_MSC_RDPS_SoilVolumetricWaterContent_DBS-0to10cm_RLatLon0.09_PT007H.grib2 2026-04-28 14:41 262K
20260428T12Z_MSC_RDPS_SoilVolumetricWaterContent_DBS-0to1cm_RLatLon0.09_PT007H.grib2 2026-04-28 14:41 332K
20260428T12Z_MSC_RDPS_SpecificHumidity_AGL-120m_RLatLon0.09_PT007H.grib2 2026-04-28 14:41 493K
20260428T12Z_MSC_RDPS_SpecificHumidity_AGL-2m_RLatLon0.09_PT007H.grib2 2026-04-28 14:41 662K
20260428T12Z_MSC_RDPS_SpecificHumidity_AGL-40m_RLatLon0.09_PT007H.grib2 2026-04-28 14:41 497K
20260428T12Z_MSC_RDPS_SpecificHumidity_AGL-80m_RLatLon0.09_PT007H.grib2 2026-04-28 14:41 494K
20260428T12Z_MSC_RDPS_SpecificHumidity_IsbL-0001_RLatLon0.09_PT007H.grib2 2026-04-28 14:41 387K
20260428T12Z_MSC_RDPS_SpecificHumidity_IsbL-0005_RLatLon0.09_PT007H.grib2 2026-04-28 14:41 357K
20260428T12Z_MSC_RDPS_SpecificHumidity_IsbL-0010_RLatLon0.09_PT007H.grib2 2026-04-28 14:41 394K
20260428T12Z_MSC_RDPS_SpecificHumidity_IsbL-0020_RLatLon0.09_PT007H.grib2 2026-04-28 14:41 387K
20260428T12Z_MSC_RDPS_SpecificHumidity_IsbL-0030_RLatLon0.09_PT007H.grib2 2026-04-28 14:41 371K
20260428T12Z_MSC_RDPS_SpecificHumidity_IsbL-0050_RLatLon0.09_PT007H.grib2 2026-04-28 14:41 464K
20260428T12Z_MSC_RDPS_SpecificHumidity_IsbL-0100_RLatLon0.09_PT007H.grib2 2026-04-28 14:41 445K
20260428T12Z_MSC_RDPS_SpecificHumidity_IsbL-0150_RLatLon0.09_PT007H.grib2 2026-04-28 14:41 384K
20260428T12Z_MSC_RDPS_SpecificHumidity_IsbL-0175_RLatLon0.09_PT007H.grib2 2026-04-28 14:41 470K
20260428T12Z_MSC_RDPS_SpecificHumidity_IsbL-0200_RLatLon0.09_PT007H.grib2 2026-04-28 14:41 461K
20260428T12Z_MSC_RDPS_SpecificHumidity_IsbL-0225_RLatLon0.09_PT007H.grib2 2026-04-28 14:41 458K
20260428T12Z_MSC_RDPS_SpecificHumidity_IsbL-0250_RLatLon0.09_PT007H.grib2 2026-04-28 14:41 518K
20260428T12Z_MSC_RDPS_SpecificHumidity_IsbL-0275_RLatLon0.09_PT007H.grib2 2026-04-28 14:41 480K
20260428T12Z_MSC_RDPS_SpecificHumidity_IsbL-0300_RLatLon0.09_PT007H.grib2 2026-04-28 14:41 579K
20260428T12Z_MSC_RDPS_SpecificHumidity_IsbL-0350_RLatLon0.09_PT007H.grib2 2026-04-28 14:41 545K
20260428T12Z_MSC_RDPS_SpecificHumidity_IsbL-0400_RLatLon0.09_PT007H.grib2 2026-04-28 14:41 529K
20260428T12Z_MSC_RDPS_SpecificHumidity_IsbL-0450_RLatLon0.09_PT007H.grib2 2026-04-28 14:41 580K
20260428T12Z_MSC_RDPS_SpecificHumidity_IsbL-0500_RLatLon0.09_PT007H.grib2 2026-04-28 14:41 514K
20260428T12Z_MSC_RDPS_SpecificHumidity_IsbL-0550_RLatLon0.09_PT007H.grib2 2026-04-28 14:41 587K
20260428T12Z_MSC_RDPS_SpecificHumidity_IsbL-0600_RLatLon0.09_PT007H.grib2 2026-04-28 14:41 638K
20260428T12Z_MSC_RDPS_SpecificHumidity_IsbL-0650_RLatLon0.09_PT007H.grib2 2026-04-28 14:41 555K
20260428T12Z_MSC_RDPS_SpecificHumidity_IsbL-0700_RLatLon0.09_PT007H.grib2 2026-04-28 14:41 598K
20260428T12Z_MSC_RDPS_SpecificHumidity_IsbL-0750_RLatLon0.09_PT007H.grib2 2026-04-28 14:41 654K
20260428T12Z_MSC_RDPS_SpecificHumidity_IsbL-0800_RLatLon0.09_PT007H.grib2 2026-04-28 14:41 736K
20260428T12Z_MSC_RDPS_SpecificHumidity_IsbL-0850_RLatLon0.09_PT007H.grib2 2026-04-28 14:41 808K
20260428T12Z_MSC_RDPS_SpecificHumidity_IsbL-0875_RLatLon0.09_PT007H.grib2 2026-04-28 14:41 832K
20260428T12Z_MSC_RDPS_SpecificHumidity_IsbL-0900_RLatLon0.09_PT007H.grib2 2026-04-28 14:41 703K
20260428T12Z_MSC_RDPS_SpecificHumidity_IsbL-0925_RLatLon0.09_PT007H.grib2 2026-04-28 14:41 706K
20260428T12Z_MSC_RDPS_SpecificHumidity_IsbL-0950_RLatLon0.09_PT007H.grib2 2026-04-28 14:41 707K
20260428T12Z_MSC_RDPS_SpecificHumidity_IsbL-0970_RLatLon0.09_PT007H.grib2 2026-04-28 14:41 698K
20260428T12Z_MSC_RDPS_SpecificHumidity_IsbL-0985_RLatLon0.09_PT007H.grib2 2026-04-28 14:41 690K
20260428T12Z_MSC_RDPS_SpecificHumidity_IsbL-1000_RLatLon0.09_PT007H.grib2 2026-04-28 14:41 684K
20260428T12Z_MSC_RDPS_SpecificHumidity_IsbL-1015_RLatLon0.09_PT007H.grib2 2026-04-28 14:41 675K
20260428T12Z_MSC_RDPS_SpecificHumidity_Sfc_RLatLon0.09_PT007H.grib2 2026-04-28 14:41 342K
20260428T12Z_MSC_RDPS_StormRelativeHelicity_EtaL-10000_RLatLon0.09_PT007H.grib2 2026-04-28 14:41 1.1M
20260428T12Z_MSC_RDPS_StormSeverityIndex_EtaL-10000_RLatLon0.09_PT007H.grib2 2026-04-28 14:41 1.2M
20260428T12Z_MSC_RDPS_Thickness_IsbL-0850to0700_RLatLon0.09_PT007H.grib2 2026-04-28 14:41 179K
20260428T12Z_MSC_RDPS_Thickness_IsbL-1000to0500_RLatLon0.09_PT007H.grib2 2026-04-28 14:41 202K
20260428T12Z_MSC_RDPS_Thickness_IsbL-1000to0850_RLatLon0.09_PT007H.grib2 2026-04-28 14:41 191K
20260428T12Z_MSC_RDPS_TotalCloudCover_Sfc_RLatLon0.09_PT007H.grib2 2026-04-28 14:41 652K
20260428T12Z_MSC_RDPS_TotalTotalsIndex_Sfc_RLatLon0.09_PT007H.grib2 2026-04-28 14:41 2.4M
20260428T12Z_MSC_RDPS_UVIndex-ClearSky_Sfc_RLatLon0.09_PT007H.grib2 2026-04-28 14:41 227K
20260428T12Z_MSC_RDPS_UVIndex_Sfc_RLatLon0.09_PT007H.grib2 2026-04-28 14:41 528K
20260428T12Z_MSC_RDPS_UpwardLongwaveRadiationFlux_NTAtm_RLatLon0.09_PT007H.grib2 2026-04-28 14:41 391K
20260428T12Z_MSC_RDPS_UpwardShortwaveRadiationFlux_NTAtm_RLatLon0.09_PT007H.grib2 2026-04-28 14:41 560K
20260428T12Z_MSC_RDPS_VerticalVelocity_IsbL-0250_RLatLon0.09_PT007H.grib2 2026-04-28 14:41 458K
20260428T12Z_MSC_RDPS_VerticalVelocity_IsbL-0500_RLatLon0.09_PT007H.grib2 2026-04-28 14:41 549K
20260428T12Z_MSC_RDPS_VerticalVelocity_IsbL-0700_RLatLon0.09_PT007H.grib2 2026-04-28 14:41 602K
20260428T12Z_MSC_RDPS_VerticalVelocity_IsbL-0850_RLatLon0.09_PT007H.grib2 2026-04-28 14:41 724K
20260428T12Z_MSC_RDPS_VerticalWindShear_EtaL-6500_RLatLon0.09_PT007H.grib2 2026-04-28 14:41 1.2M
20260428T12Z_MSC_RDPS_WindChill_Sfc_RLatLon0.09_PT007H.grib2 2026-04-28 14:41 1.1M
20260428T12Z_MSC_RDPS_WindDir_AGL-10m_RLatLon0.09_PT007H.grib2 2026-04-28 14:41 964K
20260428T12Z_MSC_RDPS_WindDir_AGL-120m_RLatLon0.09_PT007H.grib2 2026-04-28 14:41 612K
20260428T12Z_MSC_RDPS_WindDir_AGL-40m_RLatLon0.09_PT007H.grib2 2026-04-28 14:41 633K
20260428T12Z_MSC_RDPS_WindDir_AGL-80m_RLatLon0.09_PT007H.grib2 2026-04-28 14:41 621K
20260428T12Z_MSC_RDPS_WindDir_IsbL-0001_RLatLon0.09_PT007H.grib2 2026-04-28 14:41 282K
20260428T12Z_MSC_RDPS_WindDir_IsbL-0005_RLatLon0.09_PT007H.grib2 2026-04-28 14:41 340K
20260428T12Z_MSC_RDPS_WindDir_IsbL-0010_RLatLon0.09_PT007H.grib2 2026-04-28 14:41 365K
20260428T12Z_MSC_RDPS_WindDir_IsbL-0020_RLatLon0.09_PT007H.grib2 2026-04-28 14:41 400K
20260428T12Z_MSC_RDPS_WindDir_IsbL-0030_RLatLon0.09_PT007H.grib2 2026-04-28 14:41 387K
20260428T12Z_MSC_RDPS_WindDir_IsbL-0050_RLatLon0.09_PT007H.grib2 2026-04-28 14:41 406K
20260428T12Z_MSC_RDPS_WindDir_IsbL-0100_RLatLon0.09_PT007H.grib2 2026-04-28 14:41 411K
20260428T12Z_MSC_RDPS_WindDir_IsbL-0150_RLatLon0.09_PT007H.grib2 2026-04-28 14:41 419K
20260428T12Z_MSC_RDPS_WindDir_IsbL-0175_RLatLon0.09_PT007H.grib2 2026-04-28 14:41 435K
20260428T12Z_MSC_RDPS_WindDir_IsbL-0200_RLatLon0.09_PT007H.grib2 2026-04-28 14:41 438K
20260428T12Z_MSC_RDPS_WindDir_IsbL-0225_RLatLon0.09_PT007H.grib2 2026-04-28 14:41 443K
20260428T12Z_MSC_RDPS_WindDir_IsbL-0250_RLatLon0.09_PT007H.grib2 2026-04-28 14:41 452K
20260428T12Z_MSC_RDPS_WindDir_IsbL-0275_RLatLon0.09_PT007H.grib2 2026-04-28 14:41 476K
20260428T12Z_MSC_RDPS_WindDir_IsbL-0300_RLatLon0.09_PT007H.grib2 2026-04-28 14:41 474K
20260428T12Z_MSC_RDPS_WindDir_IsbL-0350_RLatLon0.09_PT007H.grib2 2026-04-28 14:41 499K
20260428T12Z_MSC_RDPS_WindDir_IsbL-0400_RLatLon0.09_PT007H.grib2 2026-04-28 14:41 518K
20260428T12Z_MSC_RDPS_WindDir_IsbL-0450_RLatLon0.09_PT007H.grib2 2026-04-28 14:41 537K
20260428T12Z_MSC_RDPS_WindDir_IsbL-0500_RLatLon0.09_PT007H.grib2 2026-04-28 14:41 551K
20260428T12Z_MSC_RDPS_WindDir_IsbL-0550_RLatLon0.09_PT007H.grib2 2026-04-28 14:41 562K
20260428T12Z_MSC_RDPS_WindDir_IsbL-0600_RLatLon0.09_PT007H.grib2 2026-04-28 14:41 589K
20260428T12Z_MSC_RDPS_WindDir_IsbL-0650_RLatLon0.09_PT007H.grib2 2026-04-28 14:41 629K
20260428T12Z_MSC_RDPS_WindDir_IsbL-0700_RLatLon0.09_PT007H.grib2 2026-04-28 14:41 670K
20260428T12Z_MSC_RDPS_WindDir_IsbL-0750_RLatLon0.09_PT007H.grib2 2026-04-28 14:41 718K
20260428T12Z_MSC_RDPS_WindDir_IsbL-0800_RLatLon0.09_PT007H.grib2 2026-04-28 14:41 786K
20260428T12Z_MSC_RDPS_WindDir_IsbL-0850_RLatLon0.09_PT007H.grib2 2026-04-28 14:41 862K
20260428T12Z_MSC_RDPS_WindDir_IsbL-0875_RLatLon0.09_PT007H.grib2 2026-04-28 14:41 887K
20260428T12Z_MSC_RDPS_WindDir_IsbL-0900_RLatLon0.09_PT007H.grib2 2026-04-28 14:41 903K
20260428T12Z_MSC_RDPS_WindDir_IsbL-0925_RLatLon0.09_PT007H.grib2 2026-04-28 14:41 913K
20260428T12Z_MSC_RDPS_WindDir_IsbL-0950_RLatLon0.09_PT007H.grib2 2026-04-28 14:41 913K
20260428T12Z_MSC_RDPS_WindDir_IsbL-0970_RLatLon0.09_PT007H.grib2 2026-04-28 14:41 921K
20260428T12Z_MSC_RDPS_WindDir_IsbL-0985_RLatLon0.09_PT007H.grib2 2026-04-28 14:41 928K
20260428T12Z_MSC_RDPS_WindDir_IsbL-1000_RLatLon0.09_PT007H.grib2 2026-04-28 14:41 941K
20260428T12Z_MSC_RDPS_WindDir_IsbL-1015_RLatLon0.09_PT007H.grib2 2026-04-28 14:41 955K
20260428T12Z_MSC_RDPS_WindGust-Max_AGL-10m_RLatLon0.09_PT007H.grib2 2026-04-28 14:41 944K
20260428T12Z_MSC_RDPS_WindGust-Min_AGL-10m_RLatLon0.09_PT007H.grib2 2026-04-28 14:41 1.0M
20260428T12Z_MSC_RDPS_WindGust_AGL-10m_RLatLon0.09_PT007H.grib2 2026-04-28 14:41 1.0M
20260428T12Z_MSC_RDPS_WindSpeed_AGL-10m_RLatLon0.09_PT007H.grib2 2026-04-28 14:41 839K
20260428T12Z_MSC_RDPS_WindSpeed_AGL-120m_RLatLon0.09_PT007H.grib2 2026-04-28 14:41 546K
20260428T12Z_MSC_RDPS_WindSpeed_AGL-40m_RLatLon0.09_PT007H.grib2 2026-04-28 14:41 539K
20260428T12Z_MSC_RDPS_WindSpeed_AGL-80m_RLatLon0.09_PT007H.grib2 2026-04-28 14:41 535K
20260428T12Z_MSC_RDPS_WindSpeed_IsbL-0001_RLatLon0.09_PT007H.grib2 2026-04-28 14:41 253K
20260428T12Z_MSC_RDPS_WindSpeed_IsbL-0005_RLatLon0.09_PT007H.grib2 2026-04-28 14:41 291K
20260428T12Z_MSC_RDPS_WindSpeed_IsbL-0010_RLatLon0.09_PT007H.grib2 2026-04-28 14:41 302K
20260428T12Z_MSC_RDPS_WindSpeed_IsbL-0020_RLatLon0.09_PT007H.grib2 2026-04-28 14:41 319K
20260428T12Z_MSC_RDPS_WindSpeed_IsbL-0030_RLatLon0.09_PT007H.grib2 2026-04-28 14:41 315K
20260428T12Z_MSC_RDPS_WindSpeed_IsbL-0050_RLatLon0.09_PT007H.grib2 2026-04-28 14:41 344K
20260428T12Z_MSC_RDPS_WindSpeed_IsbL-0100_RLatLon0.09_PT007H.grib2 2026-04-28 14:41 481K
20260428T12Z_MSC_RDPS_WindSpeed_IsbL-0150_RLatLon0.09_PT007H.grib2 2026-04-28 14:41 388K
20260428T12Z_MSC_RDPS_WindSpeed_IsbL-0175_RLatLon0.09_PT007H.grib2 2026-04-28 14:41 439K
20260428T12Z_MSC_RDPS_WindSpeed_IsbL-0200_RLatLon0.09_PT007H.grib2 2026-04-28 14:41 453K
20260428T12Z_MSC_RDPS_WindSpeed_IsbL-0225_RLatLon0.09_PT007H.grib2 2026-04-28 14:41 460K
20260428T12Z_MSC_RDPS_WindSpeed_IsbL-0250_RLatLon0.09_PT007H.grib2 2026-04-28 14:41 465K
20260428T12Z_MSC_RDPS_WindSpeed_IsbL-0275_RLatLon0.09_PT007H.grib2 2026-04-28 14:41 485K
20260428T12Z_MSC_RDPS_WindSpeed_IsbL-0300_RLatLon0.09_PT007H.grib2 2026-04-28 14:41 483K
20260428T12Z_MSC_RDPS_WindSpeed_IsbL-0350_RLatLon0.09_PT007H.grib2 2026-04-28 14:41 473K
20260428T12Z_MSC_RDPS_WindSpeed_IsbL-0400_RLatLon0.09_PT007H.grib2 2026-04-28 14:41 475K
20260428T12Z_MSC_RDPS_WindSpeed_IsbL-0450_RLatLon0.09_PT007H.grib2 2026-04-28 14:41 472K
20260428T12Z_MSC_RDPS_WindSpeed_IsbL-0500_RLatLon0.09_PT007H.grib2 2026-04-28 14:41 587K
20260428T12Z_MSC_RDPS_WindSpeed_IsbL-0550_RLatLon0.09_PT007H.grib2 2026-04-28 14:41 587K
20260428T12Z_MSC_RDPS_WindSpeed_IsbL-0600_RLatLon0.09_PT007H.grib2 2026-04-28 14:41 596K
20260428T12Z_MSC_RDPS_WindSpeed_IsbL-0650_RLatLon0.09_PT007H.grib2 2026-04-28 14:41 617K
20260428T12Z_MSC_RDPS_WindSpeed_IsbL-0700_RLatLon0.09_PT007H.grib2 2026-04-28 14:41 638K
20260428T12Z_MSC_RDPS_WindSpeed_IsbL-0750_RLatLon0.09_PT007H.grib2 2026-04-28 14:41 666K
20260428T12Z_MSC_RDPS_WindSpeed_IsbL-0800_RLatLon0.09_PT007H.grib2 2026-04-28 14:41 758K
20260428T12Z_MSC_RDPS_WindSpeed_IsbL-0850_RLatLon0.09_PT007H.grib2 2026-04-28 14:41 815K
20260428T12Z_MSC_RDPS_WindSpeed_IsbL-0875_RLatLon0.09_PT007H.grib2 2026-04-28 14:41 788K
20260428T12Z_MSC_RDPS_WindSpeed_IsbL-0900_RLatLon0.09_PT007H.grib2 2026-04-28 14:41 799K
20260428T12Z_MSC_RDPS_WindSpeed_IsbL-0925_RLatLon0.09_PT007H.grib2 2026-04-28 14:41 855K
20260428T12Z_MSC_RDPS_WindSpeed_IsbL-0950_RLatLon0.09_PT007H.grib2 2026-04-28 14:41 856K
20260428T12Z_MSC_RDPS_WindSpeed_IsbL-0970_RLatLon0.09_PT007H.grib2 2026-04-28 14:41 859K
20260428T12Z_MSC_RDPS_WindSpeed_IsbL-0985_RLatLon0.09_PT007H.grib2 2026-04-28 14:41 852K
20260428T12Z_MSC_RDPS_WindSpeed_IsbL-1000_RLatLon0.09_PT007H.grib2 2026-04-28 14:41 849K
20260428T12Z_MSC_RDPS_WindSpeed_IsbL-1015_RLatLon0.09_PT007H.grib2 2026-04-28 14:41 839K
20260428T12Z_MSC_RDPS_WindU_AGL-10m_RLatLon0.09_PT007H.grib2 2026-04-28 14:41 435K
20260428T12Z_MSC_RDPS_WindU_AGL-120m_RLatLon0.09_PT007H.grib2 2026-04-28 14:41 417K
20260428T12Z_MSC_RDPS_WindU_AGL-40m_RLatLon0.09_PT007H.grib2 2026-04-28 14:41 537K
20260428T12Z_MSC_RDPS_WindU_AGL-80m_RLatLon0.09_PT007H.grib2 2026-04-28 14:41 418K
20260428T12Z_MSC_RDPS_WindU_IsbL-0001_RLatLon0.09_PT007H.grib2 2026-04-28 14:41 293K
20260428T12Z_MSC_RDPS_WindU_IsbL-0005_RLatLon0.09_PT007H.grib2 2026-04-28 14:41 286K
20260428T12Z_MSC_RDPS_WindU_IsbL-0010_RLatLon0.09_PT007H.grib2 2026-04-28 14:41 294K
20260428T12Z_MSC_RDPS_WindU_IsbL-0020_RLatLon0.09_PT007H.grib2 2026-04-28 14:41 318K
20260428T12Z_MSC_RDPS_WindU_IsbL-0030_RLatLon0.09_PT007H.grib2 2026-04-28 14:41 346K
20260428T12Z_MSC_RDPS_WindU_IsbL-0050_RLatLon0.09_PT007H.grib2 2026-04-28 14:41 372K
20260428T12Z_MSC_RDPS_WindU_IsbL-0100_RLatLon0.09_PT007H.grib2 2026-04-28 14:41 340K
20260428T12Z_MSC_RDPS_WindU_IsbL-0150_RLatLon0.09_PT007H.grib2 2026-04-28 14:41 405K
20260428T12Z_MSC_RDPS_WindU_IsbL-0175_RLatLon0.09_PT007H.grib2 2026-04-28 14:41 432K
20260428T12Z_MSC_RDPS_WindU_IsbL-0200_RLatLon0.09_PT007H.grib2 2026-04-28 14:41 345K
20260428T12Z_MSC_RDPS_WindU_IsbL-0225_RLatLon0.09_PT007H.grib2 2026-04-28 14:41 351K
20260428T12Z_MSC_RDPS_WindU_IsbL-0250_RLatLon0.09_PT007H.grib2 2026-04-28 14:41 354K
20260428T12Z_MSC_RDPS_WindU_IsbL-0275_RLatLon0.09_PT007H.grib2 2026-04-28 14:41 371K
20260428T12Z_MSC_RDPS_WindU_IsbL-0300_RLatLon0.09_PT007H.grib2 2026-04-28 14:41 367K
20260428T12Z_MSC_RDPS_WindU_IsbL-0350_RLatLon0.09_PT007H.grib2 2026-04-28 14:41 476K
20260428T12Z_MSC_RDPS_WindU_IsbL-0400_RLatLon0.09_PT007H.grib2 2026-04-28 14:41 477K
20260428T12Z_MSC_RDPS_WindU_IsbL-0450_RLatLon0.09_PT007H.grib2 2026-04-28 14:41 476K
20260428T12Z_MSC_RDPS_WindU_IsbL-0500_RLatLon0.09_PT007H.grib2 2026-04-28 14:41 475K
20260428T12Z_MSC_RDPS_WindU_IsbL-0550_RLatLon0.09_PT007H.grib2 2026-04-28 14:41 458K
20260428T12Z_MSC_RDPS_WindU_IsbL-0600_RLatLon0.09_PT007H.grib2 2026-04-28 14:41 467K
20260428T12Z_MSC_RDPS_WindU_IsbL-0650_RLatLon0.09_PT007H.grib2 2026-04-28 14:41 486K
20260428T12Z_MSC_RDPS_WindU_IsbL-0700_RLatLon0.09_PT007H.grib2 2026-04-28 14:41 506K
20260428T12Z_MSC_RDPS_WindU_IsbL-0750_RLatLon0.09_PT007H.grib2 2026-04-28 14:41 533K
20260428T12Z_MSC_RDPS_WindU_IsbL-0800_RLatLon0.09_PT007H.grib2 2026-04-28 14:41 575K
20260428T12Z_MSC_RDPS_WindU_IsbL-0850_RLatLon0.09_PT007H.grib2 2026-04-28 14:41 625K
20260428T12Z_MSC_RDPS_WindU_IsbL-0875_RLatLon0.09_PT007H.grib2 2026-04-28 14:41 649K
20260428T12Z_MSC_RDPS_WindU_IsbL-0900_RLatLon0.09_PT007H.grib2 2026-04-28 14:41 657K
20260428T12Z_MSC_RDPS_WindU_IsbL-0925_RLatLon0.09_PT007H.grib2 2026-04-28 14:41 656K
20260428T12Z_MSC_RDPS_WindU_IsbL-0950_RLatLon0.09_PT007H.grib2 2026-04-28 14:41 653K
20260428T12Z_MSC_RDPS_WindU_IsbL-0970_RLatLon0.09_PT007H.grib2 2026-04-28 14:41 654K
20260428T12Z_MSC_RDPS_WindU_IsbL-0985_RLatLon0.09_PT007H.grib2 2026-04-28 14:41 651K
20260428T12Z_MSC_RDPS_WindU_IsbL-1000_RLatLon0.09_PT007H.grib2 2026-04-28 14:41 649K
20260428T12Z_MSC_RDPS_WindU_IsbL-1015_RLatLon0.09_PT007H.grib2 2026-04-28 14:41 781K
20260428T12Z_MSC_RDPS_WindV_AGL-10m_RLatLon0.09_PT007H.grib2 2026-04-28 14:41 434K
20260428T12Z_MSC_RDPS_WindV_AGL-120m_RLatLon0.09_PT007H.grib2 2026-04-28 14:41 532K
20260428T12Z_MSC_RDPS_WindV_AGL-40m_RLatLon0.09_PT007H.grib2 2026-04-28 14:41 535K
20260428T12Z_MSC_RDPS_WindV_AGL-80m_RLatLon0.09_PT007H.grib2 2026-04-28 14:41 533K
20260428T12Z_MSC_RDPS_WindV_IsbL-0001_RLatLon0.09_PT007H.grib2 2026-04-28 14:41 291K
20260428T12Z_MSC_RDPS_WindV_IsbL-0005_RLatLon0.09_PT007H.grib2 2026-04-28 14:41 284K
20260428T12Z_MSC_RDPS_WindV_IsbL-0010_RLatLon0.09_PT007H.grib2 2026-04-28 14:41 294K
20260428T12Z_MSC_RDPS_WindV_IsbL-0020_RLatLon0.09_PT007H.grib2 2026-04-28 14:41 310K
20260428T12Z_MSC_RDPS_WindV_IsbL-0030_RLatLon0.09_PT007H.grib2 2026-04-28 14:41 310K
20260428T12Z_MSC_RDPS_WindV_IsbL-0050_RLatLon0.09_PT007H.grib2 2026-04-28 14:41 339K
20260428T12Z_MSC_RDPS_WindV_IsbL-0100_RLatLon0.09_PT007H.grib2 2026-04-28 14:41 335K
20260428T12Z_MSC_RDPS_WindV_IsbL-0150_RLatLon0.09_PT007H.grib2 2026-04-28 14:41 402K
20260428T12Z_MSC_RDPS_WindV_IsbL-0175_RLatLon0.09_PT007H.grib2 2026-04-28 14:41 430K
20260428T12Z_MSC_RDPS_WindV_IsbL-0200_RLatLon0.09_PT007H.grib2 2026-04-28 14:41 344K
20260428T12Z_MSC_RDPS_WindV_IsbL-0225_RLatLon0.09_PT007H.grib2 2026-04-28 14:41 349K
20260428T12Z_MSC_RDPS_WindV_IsbL-0250_RLatLon0.09_PT007H.grib2 2026-04-28 14:41 351K
20260428T12Z_MSC_RDPS_WindV_IsbL-0275_RLatLon0.09_PT007H.grib2 2026-04-28 14:41 391K
20260428T12Z_MSC_RDPS_WindV_IsbL-0300_RLatLon0.09_PT007H.grib2 2026-04-28 14:41 365K
20260428T12Z_MSC_RDPS_WindV_IsbL-0350_RLatLon0.09_PT007H.grib2 2026-04-28 14:41 369K
20260428T12Z_MSC_RDPS_WindV_IsbL-0400_RLatLon0.09_PT007H.grib2 2026-04-28 14:41 371K
20260428T12Z_MSC_RDPS_WindV_IsbL-0450_RLatLon0.09_PT007H.grib2 2026-04-28 14:41 473K
20260428T12Z_MSC_RDPS_WindV_IsbL-0500_RLatLon0.09_PT007H.grib2 2026-04-28 14:41 471K
20260428T12Z_MSC_RDPS_WindV_IsbL-0550_RLatLon0.09_PT007H.grib2 2026-04-28 14:41 472K
20260428T12Z_MSC_RDPS_WindV_IsbL-0600_RLatLon0.09_PT007H.grib2 2026-04-28 14:41 482K
20260428T12Z_MSC_RDPS_WindV_IsbL-0650_RLatLon0.09_PT007H.grib2 2026-04-28 14:41 499K
20260428T12Z_MSC_RDPS_WindV_IsbL-0700_RLatLon0.09_PT007H.grib2 2026-04-28 14:41 517K
20260428T12Z_MSC_RDPS_WindV_IsbL-0750_RLatLon0.09_PT007H.grib2 2026-04-28 14:41 541K
20260428T12Z_MSC_RDPS_WindV_IsbL-0800_RLatLon0.09_PT007H.grib2 2026-04-28 14:41 581K
20260428T12Z_MSC_RDPS_WindV_IsbL-0850_RLatLon0.09_PT007H.grib2 2026-04-28 14:41 629K
20260428T12Z_MSC_RDPS_WindV_IsbL-0875_RLatLon0.09_PT007H.grib2 2026-04-28 14:41 646K
20260428T12Z_MSC_RDPS_WindV_IsbL-0900_RLatLon0.09_PT007H.grib2 2026-04-28 14:41 647K
20260428T12Z_MSC_RDPS_WindV_IsbL-0925_RLatLon0.09_PT007H.grib2 2026-04-28 14:41 652K
20260428T12Z_MSC_RDPS_WindV_IsbL-0950_RLatLon0.09_PT007H.grib2 2026-04-28 14:41 652K
20260428T12Z_MSC_RDPS_WindV_IsbL-0970_RLatLon0.09_PT007H.grib2 2026-04-28 14:41 653K
20260428T12Z_MSC_RDPS_WindV_IsbL-0985_RLatLon0.09_PT007H.grib2 2026-04-28 14:41 790K
20260428T12Z_MSC_RDPS_WindV_IsbL-1000_RLatLon0.09_PT007H.grib2 2026-04-28 14:41 786K
20260428T12Z_MSC_RDPS_WindV_IsbL-1015_RLatLon0.09_PT007H.grib2 2026-04-28 14:41 780K